Find Starlink 3705

NORAD ID: 52103 Int'l Des: 2022-029 Owner: SPXS Country: US Constellation: starlink operational
LEOCIRCULAR

Live Position

Loading 3D Globe...

About Starlink 3705

Description loading...

Upcoming Passes

Passes for default location (London). Set your location on the main map for personalized predictions.

Altitude History

Loading altitude history...

Two-Line Element Set

1 52103U 22029R 26122.49058175 .00000650 00000-0 58956-4 0 9996
2 52103 53.2170 197.5999 0001224 90.2428 269.8704 15.08836596228902
Epoch: May 2, 2026 • Age: 17 hours

Current Status

Altitude 558.2 km
Velocity 7.58 km/s
Sub-Earth Point -51.01°S, 167.33°W
Launch Date Mar 19, 2022
Age 4.1 years
Type internet

Technical Details

Classification Payload
Mass 297.00 kg
Dry Mass 275.00 kg
Total Mass 297.00 kg
Length 0.20 m
Diameter 2.80 m
Span 9.00 m
Shape Box + pan
Manufacturer SPXS
Bus Type Starlink
Phase Status In Orbit
Owner/State SPXS/US

Most Searched